Spirit of St Louis, MO

1:48 AM CST on February 21, 2018 (GMT -0600)
Spirit Of Saint Louis

Weather History for KSUS - April, 2013

Change the Weather History Date:

Monday, April 15, 2013

  Actual Average Record
Temperature  
Mean Temperature 61 °F -  
Max Temperature 70 °F 66 °F 90 °F (2002)
Min Temperature 53 °F 43 °F 30 °F (2008)
Degree Days  
Heating Degree Days 4    
Growing Degree Days 11 (Base 50)    
Moisture  
Dew Point 54 °F    
Average Humidity 80    
Maximum Humidity 94    
Minimum Humidity 63    
Precipitation  
Precipitation 0.71 in - - ()
Sea Level Pressure  
Sea Level Pressure 29.83 in    
Wind  
Wind Speed 5 mph (South)    
Max Wind Speed 10 mph    
Max Gust Speed 39 mph    
Visibility 8 miles    
Events Fog , Rain , Thunderstorm    
Averages and records for this station are not official NWS values.
T = Trace of Precipitation, MM = Missing Value Source: NWS Daily Summary

Daily Weather History Graph

Daily Weather History Graph

Search for Another Location

Airport or City:

Trip Planner

Search our weather history database for the weather conditions in past years. The results will help you decide how hot, cold, wet, or windy it might be!

Date:

Astronomy

Apr. 15, 2013 Rise Set
Actual Time 6:26 AM CDT 7:39 PM CDT
Civil Twilight 5:58 AM CDT 8:07 PM CDT
Nautical Twilight 5:25 AM CDT 8:40 PM CDT
Astronomical Twilight 4:51 AM CDT 9:14 PM CDT
Moon 9:54 AM CDT (4/15) No Moon Set
Length of Visible Light 14h 08m
Length of Day
13h 13m
Waxing Crescent, 25% of the Moon is Illuminated
Apr 15
Waxing Crescent
Apr 18
First Quarter
Apr 25
Full
May 2
Last Quarter
May 9
New

Hourly Weather History & Observations

Time (CDT) Temp. Dew Point Humidity Pressure Visibility Wind Dir Wind Speed Gust Speed Precip Events Conditions
12:54 AM 64.9 °F 52.0 °F 63% 29.73 in 10.0 mi SSW 6.9 mph - 0.00 in Rain Light Rain
1:54 AM 63.0 °F 53.1 °F 70% 29.74 in 10.0 mi SSW 3.5 mph - 0.00 in   Overcast
2:54 AM 63.0 °F 53.1 °F 70% 29.73 in 10.0 mi Calm Calm - N/A   Overcast
3:54 AM 62.1 °F 53.1 °F 72% 29.75 in 10.0 mi South 4.6 mph - N/A   Mostly Cloudy
4:54 AM 62.1 °F 54.0 °F 75% 29.77 in 10.0 mi WSW 4.6 mph - N/A   Overcast
5:54 AM 61.0 °F 54.0 °F 78% 29.80 in 10.0 mi SW 3.5 mph - N/A   Overcast
6:54 AM 59.0 °F 55.9 °F 90% 29.82 in 10.0 mi Calm Calm - 0.00 in   Overcast
7:16 AM 59.0 °F 57.2 °F 94% 29.85 in 1.8 mi Calm Calm - 0.05 in Rain Heavy Rain
7:19 AM 59.0 °F 57.2 °F 94% 29.86 in 3.0 mi West 3.5 mph - 0.05 in Rain Heavy Rain
7:44 AM 59.0 °F 55.4 °F 88% 29.84 in 3.0 mi Calm Calm - 0.12 in Rain , Thunderstorm Thunderstorms and Rain
7:54 AM 57.9 °F 53.1 °F 84% 29.85 in 3.0 mi West 5.8 mph - 0.15 in Rain , Thunderstorm Thunderstorms and Rain
8:44 AM 53.6 °F 51.8 °F 94% 29.87 in 0.2 mi Calm Calm - 0.47 in Fog , Rain , Thunderstorm Heavy Thunderstorms and Rain
8:47 AM 53.6 °F 51.8 °F 94% 29.88 in 0.5 mi Calm Calm - 0.48 in Fog , Rain , Thunderstorm Heavy Thunderstorms and Rain
8:50 AM 53.6 °F 51.8 °F 94% 29.87 in 5.0 mi Calm Calm - 0.48 in Rain , Thunderstorm Thunderstorms and Rain
8:54 AM 55.0 °F 52.0 °F 89% 29.86 in 5.0 mi Calm Calm - 0.49 in Rain , Thunderstorm Light Thunderstorms and Rain
9:54 AM 55.9 °F 53.1 °F 90% 29.88 in 9.0 mi WSW 3.5 mph - 0.07 in Rain Light Rain
10:54 AM 62.1 °F 57.0 °F 84% 29.83 in 10.0 mi Variable 5.8 mph - 0.00 in   Overcast
11:01 AM 62.6 °F 57.2 °F 82% 29.84 in 10.0 mi SE 10.4 mph - N/A   Mostly Cloudy
11:17 AM 62.6 °F 55.4 °F 77% 29.83 in 10.0 mi Variable 3.5 mph - N/A Thunderstorm Thunderstorm
11:54 AM 64.0 °F 57.9 °F 80% 29.83 in 10.0 mi South 5.8 mph - N/A   Mostly Cloudy
12:16 PM 66.2 °F 59.0 °F 78% 29.84 in 10.0 mi Variable 4.6 mph - N/A Thunderstorm Thunderstorm
12:30 PM 66.2 °F 57.2 °F 73% 29.83 in 10.0 mi South 9.2 mph - N/A Thunderstorm Thunderstorm
12:41 PM 68.0 °F 57.2 °F 68% 29.83 in 10.0 mi Variable 4.6 mph - N/A   Overcast
12:54 PM 69.1 °F 57.9 °F 68% 29.82 in 10.0 mi South 5.8 mph - N/A   Overcast
1:54 PM 68.0 °F 57.9 °F 70% 29.81 in 10.0 mi South 9.2 mph 19.6 mph N/A   Overcast
2:20 PM 66.2 °F 57.2 °F 73% 29.82 in 10.0 mi SSE 9.2 mph 21.9 mph N/A Thunderstorm Overcast
2:43 PM 66.2 °F 57.2 °F 73% 29.83 in 10.0 mi South 9.2 mph 17.3 mph N/A   Overcast
2:54 PM 66.9 °F 57.9 °F 73% 29.82 in 10.0 mi SSE 9.2 mph - N/A   Overcast
3:54 PM 68.0 °F 57.9 °F 70% 29.79 in 10.0 mi Variable 5.8 mph - N/A   Overcast
4:54 PM 69.1 °F 57.9 °F 68% 29.78 in 10.0 mi SE 4.6 mph - N/A   Overcast
5:54 PM 69.1 °F 59.0 °F 70% 29.78 in 10.0 mi Calm Calm - N/A   Overcast
6:39 PM 57.2 °F 53.6 °F 88% 29.83 in 10.0 mi NNW 8.1 mph - N/A   Overcast
6:54 PM 57.0 °F 53.1 °F 87% 29.82 in 10.0 mi NNW 10.4 mph - N/A   Overcast
7:54 PM 55.0 °F 51.1 °F 86% 29.84 in 10.0 mi North 9.2 mph - N/A   Overcast
8:54 PM 55.0 °F 51.1 °F 86% 29.88 in 10.0 mi North 8.1 mph - N/A   Overcast
9:54 PM 54.0 °F 50.0 °F 86% 29.90 in 10.0 mi North 9.2 mph - N/A   Overcast
10:22 PM 53.6 °F 48.2 °F 82% 29.88 in 10.0 mi NE 10.4 mph - N/A   Overcast
10:54 PM 54.0 °F 48.9 °F 83% 29.89 in 10.0 mi NE 9.2 mph - N/A   Overcast
11:35 PM 53.6 °F 48.2 °F 82% 29.89 in 10.0 mi NNE 10.4 mph 16.1 mph N/A Thunderstorm Overcast
11:54 PM 53.1 °F 48.9 °F 86% 29.87 in 10.0 mi NE 10.4 mph 39.1 mph N/A Thunderstorm Squalls